Clawson, MI

7:52 PM EST on December 04, 2016 (GMT -0500)
Troy

Weather History for KVLL - January, 2014

Change the Weather History Date:

Saturday, January 4, 2014

  Actual Average (KDET) Record (KDET)
Temperature  
Mean Temperature 20 °F -  
Max Temperature 29 °F 32 °F 59 °F (1997)
Min Temperature 12 °F 19 °F -7 °F (1981)
Degree Days  
Heating Degree Days 44    
Moisture  
Dew Point 11 °F    
Average Humidity 62    
Maximum Humidity 93    
Minimum Humidity 48    
Precipitation  
Precipitation 0.00 in - - ()
Sea Level Pressure  
Sea Level Pressure 30.01 in    
Wind  
Wind Speed 13 mph (SSW)    
Max Wind Speed 20 mph    
Max Gust Speed 30 mph    
Visibility 9 miles    
Events Snow    
Averages and records for this station are not official NWS values.
T = Trace of Precipitation, MM = Missing Value Source: NWS Daily Summary

Daily Weather History Graph

Daily Weather History Graph

Search for Another Location

Airport or City:

Trip Planner

Search our weather history database for the weather conditions in past years. The results will help you decide how hot, cold, wet, or windy it might be!

Date:

Astronomy

Jan. 04, 2014 Rise Set
Actual Time 8:02 AM EST 5:13 PM EST
Civil Twilight 7:30 AM EST 5:44 PM EST
Nautical Twilight 6:55 AM EST 6:20 PM EST
Astronomical Twilight 6:21 AM EST 6:54 PM EST
Moon 10:02 AM EST (1/4) 9:37 PM EST (1/4)
Length of Visible Light 10h 14m
Length of Day
9h 10m
Waxing Crescent, 15% of the Moon is Illuminated
Jan 4
Waxing Crescent
Jan 7
First Quarter
Jan 15
Full
Jan 24
Last Quarter
Jan 30
New

Hourly Weather History & Observations

Time (EST) Temp. Windchill Dew Point Humidity Pressure Visibility Wind Dir Wind Speed Gust Speed Precip Events Conditions
12:10 AM 12.6 °F -3.3 °F 1.2 °F 61% 30.15 in 10.0 mi South 15.0 mph 20.7 mph N/A   Clear
12:33 AM 12.4 °F -3.5 °F 1.4 °F 62% 30.14 in 10.0 mi South 15.0 mph 19.6 mph N/A   Clear
12:54 AM 12.7 °F -3.6 °F 1.4 °F 61% 30.13 in 10.0 mi South 16.1 mph 21.9 mph N/A   Clear
1:12 AM 12.9 °F -2.2 °F 1.4 °F 60% 30.12 in 10.0 mi South 13.8 mph 24.2 mph N/A   Clear
1:32 AM 12.9 °F -2.8 °F 1.8 °F 61% 30.12 in 10.0 mi SSW 15.0 mph 23.0 mph N/A   Clear
1:52 AM 12.7 °F -0.4 °F 2.1 °F 63% 30.11 in 10.0 mi SSW 10.4 mph - N/A   Clear
2:14 AM 12.7 °F -3.6 °F 2.3 °F 63% 30.10 in 10.0 mi South 16.1 mph 24.2 mph N/A   Clear
2:31 AM 12.6 °F -5.3 °F 2.3 °F 64% 30.10 in 10.0 mi South 19.6 mph 27.6 mph N/A   Clear
2:52 AM 12.6 °F -2.7 °F 2.3 °F 64% 30.10 in 10.0 mi South 13.8 mph 20.7 mph N/A   Clear
3:13 AM 12.6 °F -3.3 °F 2.1 °F 63% 30.09 in 10.0 mi South 15.0 mph 21.9 mph N/A   Clear
3:31 AM 12.6 °F -3.8 °F 2.1 °F 63% 30.07 in 10.0 mi South 16.1 mph 24.2 mph N/A   Clear
3:50 AM 12.7 °F -2.5 °F 2.1 °F 63% 30.07 in 10.0 mi SSW 13.8 mph 24.2 mph N/A   Clear
4:10 AM 12.9 °F -2.8 °F 2.1 °F 62% 30.06 in 10.0 mi SSW 15.0 mph 21.9 mph N/A   Clear
4:31 AM 12.9 °F -0.9 °F 2.1 °F 62% 30.05 in 10.0 mi SSW 11.5 mph 17.3 mph N/A   Clear
4:54 AM 13.1 °F -0.7 °F 2.3 °F 62% 30.03 in 10.0 mi SSW 11.5 mph 19.6 mph N/A   Clear
5:14 AM 13.5 °F 0.5 °F 2.7 °F 62% 30.03 in 10.0 mi SSW 10.4 mph 18.4 mph N/A   Clear
5:33 AM 13.6 °F 0.7 °F 3.0 °F 63% 30.02 in 10.0 mi SSW 10.4 mph 18.4 mph N/A   Clear
5:52 AM 14.0 °F 2.0 °F 3.2 °F 62% 30.02 in 10.0 mi SSW 9.2 mph 18.4 mph N/A   Clear
6:14 AM 14.2 °F 1.4 °F 3.7 °F 63% 30.01 in 10.0 mi SSW 10.4 mph 18.4 mph N/A   Clear
6:32 AM 14.4 °F 2.4 °F 3.9 °F 63% 30.01 in 10.0 mi SSW 9.2 mph 18.4 mph N/A   Clear
6:55 AM 14.7 °F 2.9 °F 4.1 °F 63% 30.01 in 10.0 mi SSW 9.2 mph 17.3 mph N/A   Clear
7:15 AM 14.7 °F 2.9 °F 4.5 °F 64% 30.00 in 10.0 mi SSW 9.2 mph 16.1 mph N/A   Clear
7:34 AM 14.9 °F 2.3 °F 4.8 °F 64% 29.99 in 10.0 mi South 10.4 mph - N/A   Scattered Clouds
7:54 AM 14.9 °F 4.0 °F 5.0 °F 65% 29.99 in 10.0 mi SSW 8.1 mph 16.1 mph N/A   Scattered Clouds
8:14 AM 15.3 °F 3.5 °F 5.0 °F 64% 29.98 in 10.0 mi SSW 9.2 mph - N/A   Clear
8:33 AM 15.4 °F 3.8 °F 5.2 °F 64% 29.98 in 10.0 mi SSW 9.2 mph - N/A   Clear
8:53 AM 16.3 °F 3.4 °F 5.5 °F 63% 29.97 in 10.0 mi SSW 11.5 mph 20.7 mph N/A   Clear
9:12 AM 17.4 °F 4.1 °F 5.9 °F 61% 29.97 in 10.0 mi SSW 12.7 mph 19.6 mph N/A   Clear
9:34 AM 18.3 °F 5.9 °F 6.1 °F 59% 29.98 in 10.0 mi SSW 11.5 mph 19.6 mph N/A   Clear
9:54 AM 19.4 °F 5.5 °F 6.4 °F 57% 29.97 in 10.0 mi SSW 15.0 mph 20.7 mph N/A   Clear
10:14 AM 20.8 °F 9.7 °F 7.0 °F 55% 29.97 in 10.0 mi SSW 10.4 mph 18.4 mph N/A   Clear
10:35 AM 23.7 °F 9.7 °F 8.4 °F 52% 29.96 in 10.0 mi SSW 18.4 mph 27.6 mph N/A   Clear
10:54 AM 25.7 °F 12.3 °F 8.6 °F 48% 29.96 in 10.0 mi SW 18.4 mph 29.9 mph N/A   Clear
11:15 AM 25.7 °F 14.0 °F 9.5 °F 50% 29.96 in 10.0 mi SW 13.8 mph 29.9 mph N/A   Clear
11:34 AM 25.7 °F 11.9 °F 9.5 °F 50% 29.95 in 10.0 mi SW 19.6 mph 27.6 mph N/A   Clear
11:55 AM 26.6 °F 13.8 °F 10.2 °F 50% 29.95 in 10.0 mi SW 17.3 mph 28.8 mph N/A   Clear
12:14 PM 26.1 °F 15.0 °F 10.2 °F 51% 29.94 in 10.0 mi SSW 12.7 mph 25.3 mph N/A   Clear
12:35 PM 27.0 °F 14.7 °F 11.1 °F 51% 29.93 in 10.0 mi SW 16.1 mph 23.0 mph N/A   Clear
12:55 PM 27.7 °F 16.1 °F 11.8 °F 51% 29.92 in 10.0 mi SW 15.0 mph 25.3 mph N/A   Clear
1:14 PM 27.5 °F 15.0 °F 11.8 °F 52% 29.91 in 10.0 mi SSW 17.3 mph 27.6 mph N/A   Clear
1:35 PM 28.0 °F 18.1 °F 12.9 °F 53% 29.90 in 10.0 mi SSW 11.5 mph 20.7 mph N/A   Clear
1:55 PM 28.4 °F 18.5 °F 13.5 °F 54% 29.90 in 10.0 mi SSW 11.5 mph 27.6 mph N/A   Clear
2:15 PM 29.3 °F 17.3 °F 14.0 °F 53% 29.90 in 10.0 mi SSW 17.3 mph 26.5 mph N/A   Clear
2:35 PM 29.7 °F 17.1 °F 14.5 °F 53% 29.91 in 10.0 mi SW 19.6 mph 25.3 mph N/A   Clear
2:55 PM 29.5 °F 18.8 °F 14.9 °F 55% 29.92 in 10.0 mi SW 13.8 mph 21.9 mph N/A   Clear
3:15 PM 29.1 °F 18.4 °F 14.9 °F 55% 29.94 in 10.0 mi SW 13.8 mph 23.0 mph N/A   Clear
3:34 PM 29.1 °F 19.4 °F 15.4 °F 57% 29.94 in 10.0 mi SW 11.5 mph 20.7 mph N/A   Clear
3:55 PM 29.1 °F 19.4 °F 15.8 °F 58% 29.95 in 10.0 mi SSW 11.5 mph 18.4 mph N/A   Clear
4:14 PM 28.9 °F 18.6 °F 16.3 °F 59% 29.96 in 10.0 mi SW 12.7 mph 16.1 mph N/A   Clear
4:35 PM 28.8 °F 19.5 °F 16.3 °F 60% 29.96 in 10.0 mi SSW 10.4 mph 16.1 mph N/A   Clear
4:54 PM 28.6 °F 19.9 °F 16.5 °F 61% 29.97 in 10.0 mi SSW 9.2 mph 17.3 mph N/A   Clear
5:15 PM 28.8 °F 20.2 °F 16.5 °F 60% 29.98 in 10.0 mi SW 9.2 mph 18.4 mph N/A   Clear
5:34 PM 28.9 °F 19.2 °F 17.2 °F 62% 29.98 in 10.0 mi SSW 11.5 mph 17.3 mph N/A   Clear
5:55 PM 29.1 °F 18.9 °F 17.6 °F 62% 29.98 in 10.0 mi SSW 12.7 mph 18.4 mph N/A   Mostly Cloudy
6:14 PM 29.3 °F 19.1 °F 17.6 °F 62% 29.98 in 10.0 mi SSW 12.7 mph 17.3 mph N/A   Overcast
6:35 PM 29.5 °F 21.1 °F 18.1 °F 63% 29.99 in 10.0 mi SSW 9.2 mph 16.1 mph N/A   Overcast
6:55 PM 29.7 °F 20.1 °F 18.3 °F 63% 30.00 in 10.0 mi SW 11.5 mph - N/A   Overcast
7:14 PM 29.8 °F 21.5 °F 18.5 °F 63% 30.01 in 10.0 mi SW 9.2 mph - N/A   Overcast
7:35 PM 29.8 °F 20.3 °F 18.5 °F 63% 30.02 in 10.0 mi SW 11.5 mph - N/A   Overcast
7:54 PM 29.7 °F 22.0 °F 19.6 °F 66% 30.03 in 5.0 mi WSW 8.1 mph - N/A Snow Light Snow
8:15 PM 29.3 °F 23.2 °F 20.8 °F 71% 30.03 in 7.0 mi WSW 5.8 mph - N/A Snow Light Snow
8:34 PM 29.3 °F 22.3 °F 20.3 °F 69% 30.03 in 10.0 mi WSW 6.9 mph - N/A   Overcast
8:55 PM 29.3 °F 21.5 °F 19.9 °F 68% 30.03 in 10.0 mi SW 8.1 mph - N/A   Overcast
9:14 PM 29.7 °F 24.7 °F 19.4 °F 66% 30.04 in 10.0 mi SW 4.6 mph - N/A   Overcast
9:35 PM 29.7 °F 26.1 °F 19.4 °F 66% 30.04 in 10.0 mi SW 3.5 mph - N/A   Overcast
9:54 PM 29.7 °F 26.1 °F 19.8 °F 67% 30.04 in 10.0 mi WSW 3.5 mph - N/A   Overcast
10:15 PM 29.1 °F 24.1 °F 21.2 °F 72% 30.05 in 3.0 mi WSW 4.6 mph - N/A Snow Light Snow
10:35 PM 27.7 °F 23.8 °F 24.1 °F 86% 30.04 in 1.5 mi SW 3.5 mph - N/A Snow Light Snow
10:54 PM 27.5 °F - 24.8 °F 90% 30.04 in 5.0 mi Calm Calm - N/A Snow Light Snow
11:15 PM 27.5 °F 23.6 °F 24.8 °F 90% 30.05 in 3.0 mi SW 3.5 mph - N/A Snow Light Snow
11:34 PM 27.5 °F 23.6 °F 25.0 °F 90% 30.05 in 1.8 mi SW 3.5 mph - N/A Snow Light Snow
11:55 PM 27.3 °F - 25.5 °F 93% 30.05 in 1.8 mi Calm Calm - N/A Snow Light Snow